Location: Unspecified
(47.6578°N, 23.5640°E)
Time: 22:08:03
(UTC+02:00)

ISS - Pass Details

Date: 02 December 2017
Orbit: 402 x 407 km, 51.6° (Epoch: 13 December)

Event Time Altitude Azimuth Distance (km) Brightness Sun altitude
Rises 18:58:29 0° 263° (W) 2,326 1.5 -23.2°
Reaches altitude 10° 19:00:36 10° 269° (W) 1,467 0.1 -23.6°
Enters shadow 19:02:48 35° 292° (WNW) 682 -2.3 -23.9°
